OpenBCM V1.13 (Linux)

Packet Radio Mailbox

DB0FHN

[JN59NK Nuernberg]

 Login: GUEST





  
I0OJJ  > KEPS     31.07.25 02:55l 341 Lines 16337 Bytes #999 (0) @ AMSAT
BID : ORB25212.1
Read: DJ6UX GUEST
Subj: 2Line Orbital Elements 25212.AMSAT
Path: DB0FHN<DB0FFL<OE5XBL<OE6XPE<DB0ERF<DK0WUE<DB0APK<ED1ZAC<GB7CIP<VK2RZ<
      LU9DCE<EA2RCF<I0OJJ
Sent: 250731/0025z @:I0OJJ.ITA.EU [Rome] obcm1.08-10-g596e
From: I0OJJ @ I0OJJ.ITA.EU (Gustavo)
To:   KEPS @ AMSAT
X-Info: This message was generated automatically


QST de W1STR

AMSAT Orbital Elements for Amateur Satellites in TLE Format
From Orbital Analysis Office
New England Sci-Tech STEM Education Center
Natick, MA July 31, 2025
To all radio amateurs


These element sets describe the orbits of various satellites 
in use by the amateur radio community. For details see:
www.amsat.org/keplerian-elements-formats/

A daily update of element sets is available at:
www.amsat.org/tle/daily-bulletin.txt
or without bulletin text:
www.amsat.org/tle/dailytle.txt


AO-07
1 07530U 74089B   25211.56915373 -.00000043  00000-0  21370-4 0  9998
2 07530 101.9948 216.3778 0012426  26.6681  88.9894 12.53690480320219
UO-11
1 14781U 84021B   25211.85972529  .00001496  00000-0  16272-3 0  9995
2 14781  97.7579 177.2278 0008255 156.7718 203.3874 14.89509322230270
AO-27
1 22825U 93061C   25211.75648137  .00000089  00000-0  50999-4 0  9993
2 22825  98.7335 273.5596 0007717 329.8132  30.2605 14.30813286661301
FO-29
1 24278U 96046B   25211.61959999 -.00000032  00000-0  46595-5 0  9996
2 24278  98.5684  98.7840 0349431 210.2240 147.8329 13.53250918429675
NOAA-15
1 25338U 98030A   25211.85695598  .00000214  00000-0  10567-3 0  9996
2 25338  98.5338 235.7500 0009763 202.9279 157.1467 14.27004507415716
GO-32
1 25397U 98043D   25211.48143030  .00000068  00000-0  49679-4 0  9997
2 25397  98.9739 191.6720 0002326  74.4792 285.6643 14.24325589405539
ISS
1 25544U 98067A   25211.85850123  .00012375  00000-0  22265-3 0  9991
2 25544  51.6360  90.6142 0002169 132.0041 329.5260 15.50231197521935
NO-44
1 26931U 01043C   25211.64044827  .00000160  00000-0  90790-4 0  9991
2 26931  67.0525 355.8186 0006458 276.6451  83.3915 14.31755407244419
SO-50
1 27607U 02058C   25211.84829069  .00001068  00000-0  14942-3 0  9992
2 27607  64.5529  42.2644 0061788 322.9576  36.7271 14.81747726217037
CO-55
1 27844U 03031E   25211.55084214  .00000318  00000-0  15741-3 0  9995
2 27844  98.6767 219.1681 0010490  45.1340 315.0689 14.24029302145895
CO-57
1 27848U 03031J   25211.59343951  .00000273  00000-0  13950-3 0  9999
2 27848  98.6793 219.1770 0010607  60.8888 299.3351 14.23359462145621
RS-22
1 27939U 03042A   25211.85486389  .00001223  00000-0  20115-3 0  9991
2 27939  98.3326  22.5593 0010905 201.7897 288.3402 14.72454644168371
CO-58
1 28895U 05043F   25211.39561063  .00001712  00000-0  28611-3 0  9990
2 28895  98.2565 356.4024 0015311 142.3177 217.9104 14.71155832 54414
CO-65
1 32785U 08021C   25211.54659524  .00006153  00000-0  43932-3 0  9996
2 32785  97.7876 183.1102 0010665  47.0220 313.1898 15.04843664936743
CO-66
1 32791U 08021J   25211.48612954  .00013261  00000-0  62297-3 0  9995
2 32791  97.7309 192.7064 0003688  28.4001 331.7433 15.19740449938220
RS-30
1 32953U 08025A   25211.82803261  .00000019  00000-0  69102-4 0  9990
2 32953  82.5022 195.3077 0018086 296.1197  63.8022 12.43166638779906
NOAA-19
1 33591U 09005A   25211.88152433  .00000192  00000-0  12617-3 0  9992
2 33591  98.9946 276.8676 0013218 215.1511 144.8790 14.13396387849358
SRMSAT
1 37841U 11058D   25211.35064769  .00000398  00000-0  72465-4 0  9997
2 37841  19.9703 207.3121 0011541 263.2175 127.4365 14.11448189712298
ZACUBE-1
1 39417U 13066B   25211.59128605  .00003558  00000-0  30854-3 0  9991
2 39417  97.7826 168.3567 0042324 240.8188 118.8796 14.97052421632542
Delfi-N3xt
1 39428U 13066N   25211.51114054  .00005508  00000-0  55603-3 0  9994
2 39428  97.8310 128.6058 0083542 191.6144 168.3148 14.88884283626654
GOMX-1
1 39430U 13066Q   25211.82118561  .00001930  00000-0  30362-3 0  9998
2 39430  97.6792  67.3317 0132981  29.0066 331.8446 14.67817787622921
LO-74
1 39440U 13066AA  25211.84728701  .00005128  00000-0  51524-3 0  9990
2 39440  97.8505 156.0660 0061964  12.4600 347.8133 14.90265940630276
AO-73
1 39444U 13066AE  25211.42314522  .00005885  00000-0  43545-3 0  9994
2 39444  97.7869 173.5593 0040465 211.4516 148.4289 15.02905469631225
DTUSAT-2
1 40030U 14033W   25211.43214060  .00006276  00000-0  40299-3 0  9997
2 40030  98.0583 185.7394 0007517 242.0522 117.9945 15.08823029604066
EO-80
1 40032U 14033Y   25211.51609622  .00006661  00000-0  42648-3 0  9998
2 40032  98.0472 185.4115 0008598 175.5066 184.6240 15.08900698604052
LILACSAT-2
1 40908U 15049K   25211.83105985  .00013372  00000-0  33736-3 0  9991
2 40908  97.5049 233.4462 0008019 348.2618  11.8439 15.39947846546110
IO-86
1 40931U 15052B   25151.18580175  .00001241  00000-0  78118-4 0  9996
2 40931   6.0006  24.0987 0012733 338.8432  21.1169 14.78805930523047
Horyu-4
1 41340U 16012D   25211.23305458  .00023825  00000-0  59732-3 0  9992
2 41340  30.9955 150.8217 0007341 234.7669 125.2290 15.38779827520590
Lapan A3
1 41603U 16040E   25211.84092219  .00003663  00000-0  12771-3 0  9990
2 41603  97.1387 214.4487 0012887  87.6484 272.6232 15.30161558505621
CAS-2T
1 41847U 16066G   25211.48928403  .00001053  00000-0  15790-3 0  9996
2 41847  98.4180 285.5022 0346067  24.6721 337.0589 14.43623974458362
CAS-4B
1 42759U 17034B   25211.85671902  .00105538  00000-0  82279-3 0  9994
2 42759  43.0059  14.7906 0023119 290.6764  69.1625 15.70271832450641
CAS-4A
1 42761U 17034D   25211.84059235  .00117082  00000-0  84202-3 0  9990
2 42761  43.0097  11.3755 0024171 295.2248  64.6115 15.72100498450676
TechnoSat
1 42829U 17042E   25211.48072350  .00004492  00000-0  34612-3 0  9997
2 42829  97.3928  17.7515 0017562 106.9591 253.3561 15.01985136438361
AO-91
1 43017U 17073E   25211.58550605  .00009830  00000-0  49567-3 0  9992
2 43017  97.5178  81.0694 0170218 353.2953   6.5996 15.05515108416884
S-Net D
1 43186U 18014G   25211.45625154  .00005079  00000-0  29729-3 0  9992
2 43186  97.5567 113.8437 0010506  57.3406 302.8837 15.12233003410069
S-Net B
1 43187U 18014H   25211.26381207  .00005189  00000-0  30383-3 0  9990
2 43187  97.5572 113.6276 0011101  53.2371 306.9877 15.12210993410032
S-Net A
1 43188U 18014J   25211.58880366  .00005109  00000-0  29893-3 0  9992
2 43188  97.5581 114.1059 0010999  53.0045 307.2191 15.12239863410083
S-Net C
1 43189U 18014K   25211.72953706  .00005428  00000-0  31750-3 0  9997
2 43189  97.5596 114.2684 0012303  45.1250 315.0977 15.12212690408654
Ten-Koh
1 43677U 18084G   25211.47125881  .00002425  00000-0  19609-3 0  9996
2 43677  98.0848  25.7407 0009049  96.2986 263.9267 15.00770496367878
PO-101
1 43678U 18084H   25211.80725145  .00001787  00000-0  15456-3 0  9999
2 43678  98.1067  29.9003 0008753 111.5882 248.6272 14.98523686368058
QO-100
1 43700U 18090A   25211.48238237  .00000147  00000-0  00000-0 0  9992
2 43700   0.0171  81.7673 0001134  46.9892  19.0277  1.00272801 24456
MinXSS-2
1 43758U 18099A   25211.46437110  .00016429  00000-0  61985-3 0  9995
2 43758  97.4983 277.7032 0010474 342.9480  17.1405 15.27066740364732
AO-95
1 43770U 18099N   25211.61661714  .00009202  00000-0  45486-3 0  9994
2 43770  97.4879 269.1540 0011224  42.9165 317.2942 15.18009097364293
RANGE-A
1 43773U 18099R   25211.38542920  .00004334  00000-0  27401-3 0  9996
2 43773  97.4450 258.3172 0011694  26.4834 333.6991 15.09481622363881
MOVE-II
1 43780U 18099Y   25194.80194206  .15913345  26116-5  37118-3 0  9995
2 43780  97.4526 273.8800 0018736 270.1080  89.8075 16.44566529363241
SNUSat 2
1 43782U 18099AA  25211.20245238  .00006686  00000-0  35872-3 0  9992
2 43782  97.4559 265.0787 0011059 346.5615  13.5321 15.15227108364163
SnugLite
1 43784U 18099AC  25211.70144653  .00009989  00000-0  48938-3 0  9994
2 43784  97.4372 265.2365 0002817   5.5503 354.5762 15.18345062364397
ITASat 1
1 43786U 18099AE  25211.59615489  .00006152  00000-0  34658-3 0  9996
2 43786  97.4529 264.8217 0014868  36.5253 323.6990 15.13473520364171
EAGLET 1
1 43790U 18099AJ  25211.60209906  .00004005  00000-0  25398-3 0  9992
2 43790  97.4730 264.6113 0012372  22.8459 337.3318 15.09416321363768
ESEO
1 43792U 18099AL  25211.60886253  .00002433  00000-0  18605-3 0  9996
2 43792  97.4441 257.1886 0012055 352.3845   7.7195 15.02771462363484
CSIM
1 43793U 18099AM  25211.83269712  .00491082  10580-3  10044-2 0  9994
2 43793  97.4686 294.3252 0008287 268.7937  91.2391 15.99341440365753
JO-97
1 43803U 18099AX  25211.42859069  .00011763  00000-0  52069-3 0  9992
2 43803  97.4622 270.0738 0006233 337.7410  22.3554 15.21798629364505
Suomi 100
1 43804U 18099AY  25211.13206834  .00009143  00000-0  43697-3 0  9993
2 43804  97.4690 268.9273 0011157 338.4011  21.6751 15.19186209364375
ISAT
1 43879U 18111D   25211.35402915  .00021257  00000-0  69779-3 0  9991
2 43879  97.5907 126.9173 0009062  34.7226 325.4605 15.31575476361469
UWE-4
1 43880U 18111E   25211.47380631  .00016258  00000-0  61131-3 0  9995
2 43880  97.5852 125.1490 0012706  41.2858 318.9339 15.27160438361392
Sparrow
1 43881U 18111F   25211.29347722  .00021752  00000-0  68489-3 0  9998
2 43881  97.6061 129.9361 0008655  70.7942 289.4235 15.32911908361551
Prox-1
1 44339U 19036A   25210.97052577  .00011234  00000-0  13899-2 0  9997
2 44339  23.9965  90.5802 0007468 286.9948  72.9731 14.80800910325587
SONATE
1 44400U 19038Q   25185.47540524  .09032085  27445-5  31847-3 0  9995
2 44400  97.6609 216.4776 0012462 246.7970 113.2018 16.43248376333575
Taurus 1
1 44530U 19059C   25211.84495058  .00007033  00000-0  12818-2 0  9999
2 44530  98.6125 353.7022 0008653 230.0436 130.0007 14.66341214311458
Duchifat 3
1 44854U 19089C   25211.75590566  .00057384  00000-0  96638-3 0  9998
2 44854  36.9420  28.8582 0006012 359.5778   0.4974 15.50635413310884
TO-108
1 44881U 19093C   25211.81499949  .00000981  00000-0  11904-3 0  9997
2 44881  97.7904 286.3908 0015087  66.2380 294.0416 14.85688880303687
